FW8985 Weather Reports


time (UTC)temp
F
wind
direction
speed
knots
gust
knots
rain 1hr
in
rain 24hr
in
rain mn
in
humidity
%
barometer
mb
20260503215031 67 181 2.6 7.8 0.00 0.00 0.00 44 1015.3
20260503214548 67 204 3.5 7.8 0.00 0.00 0.00 44 1015.1
20260503214033 67 228 2.6 7.8 0.00 0.00 0.00 45 1015.3
20260503213531 67 68 2.6 7.0 0.00 0.00 0.00 44 1015.3
20260503213100 67 251 1.7 6.1 0.00 0.00 0.00 45 1015.4
20260503212530 67 125 1.7 5.2 0.00 0.00 0.00 44 1015.4
20260503212032 67 0 1.7 4.3 0.00 0.00 0.00 45 1015.5
20260503211552 67 76 0.9 6.1 0.00 0.00 0.00 43 1015.5
20260503211031 67 120 2.6 6.1 0.00 0.00 0.00 45 1015.6
20260503210533 67 217 2.6 8.7 0.00 0.00 0.00 44 1015.6
20260503210055 68 170 0.9 8.7 0.00 0.00 0.00 43 1015.7
20260503205534 68 115 3.5 8.7 0.00 0.00 0.00 42 1015.7
20260503205034 68 292 2.6 9.6 0.00 0.00 0.00 40 1015.7
20260503204552 68 184 2.6 9.6 0.00 0.00 0.00 40 1015.8
20260503204031 68 269 2.6 7.0 0.00 0.00 0.00 41 1015.9
20260503203531 68 214 2.6 8.7 0.00 0.00 0.00 43 1016.0
20260503203049 68 194 4.3 8.7 0.00 0.00 0.00 42 1016.0
20260503202532 68 77 4.3 9.6 0.00 0.00 0.00 41 1016.0
20260503202033 68 158 2.6 9.6 0.00 0.00 0.00 43 1016.1
20260503201542 68 196 2.6 7.8 0.00 0.00 0.00 42 1016.2
20260503201031 68 291 2.6 7.8 0.00 0.00 0.00 40 1016.1
20260503200533 68 164 0.9 7.0 0.00 0.00 0.00 38 1016.3
20260503200044 68 268 2.6 7.0 0.00 0.00 0.00 38 1016.4
20260503195535 68 230 2.6 7.8 0.00 0.00 0.00 38 1016.4
20260503195031 68 84 1.7 7.8 0.00 0.00 0.00 35 1016.4
20260503194547 68 220 3.5 7.0 0.00 0.00 0.00 35 1016.5
20260503194034 68 281 0.9 4.3 0.00 0.00 0.00 38 1016.5
20260503193535 68 5 1.7 4.3 0.00 0.00 0.00 35 1016.7
20260503193052 68 299 0.9 6.1 0.00 0.00 0.00 37 1016.8
20260503192531 67 181 1.7 6.1 0.00 0.00 0.00 34 1016.8
20260503192031 67 0 1.7 6.1 0.00 0.00 0.00 35 1017.0
20260503191544 67 0 0.9 7.8 0.00 0.00 0.00 36 1017.1
20260503191034 67 211 2.6 7.8 0.00 0.00 0.00 37 1017.2
20260503190532 67 225 0.9 6.1 0.00 0.00 0.00 34 1017.1
20260503190043 67 187 1.7 6.1 0.00 0.00 0.00 34 1017.4
20260503185531 67 272 0.9 3.5 0.00 0.00 0.00 34 1017.5
20260503185035 67 346 0.0 7.0 0.00 0.00 0.00 36 1017.4
20260503184552 67 93 0.9 7.8 0.00 0.00 0.00 35 1017.5
20260503184032 67 249 4.3 7.8 0.00 0.00 0.00 32 1017.6
20260503183532 67 179 1.7 6.1 0.00 0.00 0.00 35 1017.7
20260503183102 67 285 1.7 5.2 0.00 0.00 0.00 34 1017.8
20260503182534 66 302 0.9 6.1 0.00 0.00 0.00 35 1017.9
20260503182033 66 207 2.6 7.8 0.00 0.00 0.00 35 1017.9
20260503181547 66 189 3.5 7.8 0.00 0.00 0.00 32 1018.0
20260503181034 66 163 3.5 7.8 0.00 0.00 0.00 31 1018.0
20260503180534 65 263 1.7 7.8 0.00 0.00 0.00 35 1018.0
20260503180047 65 199 4.3 7.8 0.00 0.00 0.00 28 1018.1
20260503175532 66 202 1.7 6.1 0.00 0.00 0.00 34 1018.2
20260503175031 65 152 0.9 6.1 0.00 0.00 0.00 34 1018.2
20260503174543 65 217 0.9 5.2 0.00 0.00 0.00 38 1018.3
20260503174032 66 99 0.9 3.5 0.00 0.00 0.00 34 1018.2
20260503173532 65 161 0.9 5.2 0.00 0.00 0.00 36 1018.3
20260503173108 65 262 0.9 7.0 0.00 0.00 0.00 38 1018.5
20260503172535 64 271 1.7 7.8 0.00 0.00 0.00 35 1018.5
20260503172031 64 177 4.3 7.8 0.00 0.00 0.00 34 1018.7
20260503171545 64 182 1.7 5.2 0.00 0.00 0.00 34 1018.8
20260503171034 64 145 1.7 4.3 0.00 0.00 0.00 43 1018.7
20260503170534 64 84 0.9 5.2 0.00 0.00 0.00 38 1018.8
20260503150534 59 80 2.6 7.0 0.00 0.00 0.00 48 1020.0
20260503150110 59 159 2.6 7.0 0.00 0.00 0.00 48 1020.0
20260503131037 52 293 0.0 1.7 0.00 0.00 0.00 72 1020.0
20260503130536 51 74 0.0 3.5 0.00 0.00 0.00 73 1020.0
20260503120106 40 0 0.0 0.0 0.00 0.00 0.00 95 1019.7
20260503110533 36 0 0.0 0.0 0.00 0.00 0.00 94 1019.2
20260503081547 40 0 0.0 1.7 0.00 0.00 0.00 91 1017.4
20260503081031 40 0 0.9 1.7 0.00 0.00 0.00 91 1017.4
20260503080538 40 0 0.0 0.0 0.00 0.00 0.00 91 1017.2
20260503072533 40 0 0.0 0.0 0.00 0.00 0.00 90 1017.0
20260503072034 40 0 0.0 0.0 0.00 0.00 0.00 89 1016.9
20260503071545 40 0 0.0 0.0 0.00 0.00 0.00 89 1016.9
20260503071033 40 0 0.0 0.0 0.00 0.00 0.00 88 1016.7
20260503070534 41 0 0.0 0.0 0.00 0.00 0.00 88 1016.8
20260503055029 42 0 0.0 0.0 0.00 0.00 0.00 87 1016.6
20260503054545 42 0 0.0 0.0 0.00 0.00 0.00 86 1016.6
20260503054035 42 0 0.0 0.0 0.00 0.00 0.00 86 1016.5
20260503053537 43 0 0.0 0.0 0.00 0.00 0.00 85 1016.6
20260503053045 43 0 0.0 0.0 0.00 0.00 0.00 85 1016.5
20260503052531 43 0 0.0 0.0 0.00 0.00 0.00 84 1016.6
20260503052031 44 0 0.0 0.0 0.00 0.00 0.00 83 1016.6
20260503051544 44 0 0.0 0.0 0.00 0.00 0.00 84 1016.6
20260503051033 44 0 0.0 0.0 0.00 0.00 0.00 85 1016.5
20260503050530 44 0 0.0 0.0 0.00 0.00 0.00 85 1016.6
20260503050045 43 0 0.0 0.9 0.00 0.00 0.00 85 1016.6
20260503045533 43 0 0.0 1.7 0.00 0.00 0.00 85 1016.5
20260503045029 44 0 0.0 1.7 0.00 0.00 0.00 83 1016.5
20260503044545 44 33 0.0 1.7 0.00 0.00 0.00 82 1016.5
20260503044030 44 0 0.0 1.7 0.00 0.00 0.00 82 1016.4
20260503043530 45 0 0.0 1.7 0.00 0.00 0.00 81 1016.3
20260503043044 45 330 0.0 2.6 0.00 0.00 0.00 80 1016.3
20260503042533 46 0 0.9 3.5 0.00 0.00 0.00 79 1016.3
20260503042034 46 257 0.9 3.5 0.00 0.00 0.00 80 1016.1
20260503041553 46 290 0.9 1.7 0.00 0.00 0.00 78 1016.2
20260503041031 47 274 0.9 2.6 0.00 0.00 0.00 76 1016.1
20260503040530 47 274 0.9 2.6 0.00 0.00 0.00 75 1016.1
20260503040055 47 274 0.9 2.6 0.00 0.00 0.00 75 1016.0
20260503035533 46 285 0.9 1.7 0.00 0.00 0.00 76 1015.9
20260503035033 46 292 0.9 1.7 0.00 0.00 0.00 78 1015.9
20260503034558 47 292 0.9 1.7 0.00 0.00 0.00 76 1015.8
20260503034034 47 292 0.0 1.7 0.00 0.00 0.00 77 1015.7
20260503033533 46 292 0.9 2.6 0.00 0.00 0.00 74 1015.6
20260503033047 46 292 0.9 2.6 0.00 0.00 0.00 76 1015.6
20260503032533 46 304 0.0 1.7 0.00 0.00 0.00 75 1015.6
20260503032033 46 305 0.9 1.7 0.00 0.00 0.00 77 1015.6
20260503031544 47 311 0.9 1.7 0.00 0.00 0.00 76 1015.6
20260503031034 47 0 0.0 1.7 0.00 0.00 0.00 74 1015.6
20260503030534 47 0 0.0 0.9 0.00 0.00 0.00 73 1015.5
20260503030053 48 0 0.0 1.7 0.00 0.00 0.00 72 1015.5
20260503025533 49 0 0.0 1.7 0.00 0.00 0.00 72 1015.4
20260503025033 49 270 0.0 1.7 0.00 0.00 0.00 73 1015.4
20260503024546 50 270 0.9 1.7 0.00 0.00 0.00 71 1015.4
20260503024031 50 270 0.0 1.7 0.00 0.00 0.00 69 1015.3
20260503023535 50 0 0.9 2.6 0.00 0.00 0.00 67 1015.2
20260503023043 50 270 0.9 2.6 0.00 0.00 0.00 67 1015.3
20260503022533 50 256 0.9 1.7 0.00 0.00 0.00 65 1015.3
20260503022036 50 0 0.9 1.7 0.00 0.00 0.00 64 1015.2
20260503021546 50 256 0.0 1.7 0.00 0.00 0.00 64 1015.1
20260503021034 50 0 0.0 1.7 0.00 0.00 0.00 65 1015.1
20260503020533 50 254 0.9 2.6 0.00 0.00 0.00 64 1015.1
20260503020047 51 252 0.9 2.6 0.00 0.00 0.00 62 1015.0
20260503015533 51 242 0.9 2.6 0.00 0.00 0.00 60 1014.9
20260503015033 51 277 0.9 1.7 0.00 0.00 0.00 62 1014.7
20260503014549 52 269 0.0 1.7 0.00 0.00 0.00 60 1014.6
20260503014035 52 269 0.9 1.7 0.00 0.00 0.00 62 1014.5
20260503013534 52 258 0.9 1.7 0.00 0.00 0.00 59 1014.5
20260503013045 52 271 0.9 1.7 0.00 0.00 0.00 59 1014.4
20260503012531 53 0 0.0 1.7 0.00 0.00 0.00 58 1014.3
20260503012035 53 261 0.0 1.7 0.00 0.00 0.00 56 1014.3
20260503011545 53 343 0.0 1.7 0.00 0.00 0.00 55 1014.2
20260503011030 53 0 0.0 1.7 0.00 0.00 0.00 58 1014.1
20260503010533 54 242 0.0 1.7 0.00 0.00 0.00 56 1014.0
20260503010050 54 236 0.9 2.6 0.00 0.00 0.00 54 1014.0
20260503005533 55 267 0.9 2.6 0.00 0.00 0.00 56 1013.9
20260503005035 55 220 0.9 1.7 0.00 0.00 0.00 56 1013.7
20260503004543 56 252 0.9 3.5 0.00 0.00 0.00 55 1013.6
20260503004035 56 232 0.9 4.3 0.00 0.00 0.00 53 1013.5
20260503003533 56 0 0.9 4.3 0.00 0.00 0.00 54 1013.5
20260503003051 56 0 0.9 3.5 0.00 0.00 0.00 53 1013.4
20260503002533 57 0 0.9 3.5 0.00 0.00 0.00 52 1013.3
20260503002033 57 346 0.9 3.5 0.00 0.00 0.00 56 1013.2
20260503001601 57 221 0.9 6.1 0.00 0.00 0.00 53 1013.1
20260503001036 57 207 1.7 7.0 0.00 0.00 0.00 52 1012.9
20260503000535 57 279 0.9 7.0 0.00 0.00 0.00 53 1012.8
20260503000100 58 25 0.9 3.5 0.00 0.00 0.00 57 1012.8
20260502235536 58 315 0.9 2.6 0.00 0.00 0.00 53 1012.7
20260502235030 58 121 0.0 2.6 0.00 0.00 0.00 53 1012.6
20260502234545 58 72 0.0 3.5 0.00 0.00 0.00 54 1012.5
20260502234031 58 0 0.0 3.5 0.00 0.00 0.00 54 1012.3
20260502233533 58 63 0.0 3.5 0.00 0.00 0.00 49 1012.3
20260502233045 58 0 0.9 2.6 0.00 0.00 0.00 55 1012.2
20260502232533 58 33 0.0 2.6 0.00 0.00 0.00 55 1012.1
20260502232033 59 134 0.9 3.5 0.00 0.00 0.00 50 1012.1
20260502231555 59 257 0.0 3.5 0.00 0.00 0.00 55 1012.0
20260502231035 59 234 0.0 3.5 0.00 0.00 0.00 53 1012.0
20260502230604 59 0 0.9 6.1 0.00 0.00 0.00 49 1011.9
20260502230044 59 79 0.0 6.1 0.00 0.00 0.00 52 1011.9
20260502225534 60 111 0.0 3.5 0.00 0.00 0.00 54 1011.9
20260502225034 60 186 0.9 4.3 0.00 0.00 0.00 46 1011.9
20260502224552 60 342 1.7 4.3 0.00 0.00 0.00 52 1011.9
20260502224035 60 280 0.9 5.2 0.00 0.00 0.00 51 1011.8
20260502223534 60 184 0.9 5.2 0.00 0.00 0.00 49 1011.8
20260502223046 60 256 1.7 5.2 0.00 0.00 0.00 53 1011.8
20260502222535 61 131 0.9 5.2 0.00 0.00 0.00 61 1011.7
20260502222035 61 109 0.9 4.3 0.00 0.00 0.00 61 1011.7
20260502221546 61 224 0.9 3.5 0.00 0.00 0.00 60 1011.6
20260502221035 61 319 0.9 2.6 0.00 0.00 0.00 63 1011.6
20260502220536 62 262 0.0 2.6 0.00 0.00 0.00 59 1011.5
20260502220050 62 0 0.0 2.6 0.00 0.00 0.00 62 1011.5
20260502215535 61 0 0.9 2.6 0.00 0.00 0.00 58 1011.4